Home   Weather   Adrar   Past weeks
Flag for Algeria

Past Weather in Adrar, Algeria — Yesterday and Last 2 Weeks

Now
73 °F

Sunny.


Feels Like: 77 °F
Forecast: 98 / 68 °F
Wind: 7 mph from North

Location: Adrar Airport

Current Time: Oct 20, 2019 at 9:59:57 am

Latest Report: Oct 20, 2019 at 9:00 am


Visibility: 10 mi

Pressure: 29.92 "Hg

Humidity: 31%

Dew Point: 41 °F

Location of AdrarLocation

Past Weather in Adrar — Graph

°F

Adrar Temperature Yesterday

Maximum temperature yesterday: 93 °F (at 3:00 pm)
Minimum temperature yesterday: 68 °F (at 6:00 am)
Average temperature yesterday: 81 °F

High & Low Weather Summary for the Past Weeks

 TemperatureHumidityPressure
High99 °F (Oct 6, 2:00 pm)78% (Oct 13, 8:00 am)30.12 "Hg (Oct 13, 8:00 am)
Low61 °F (Oct 13, 12:00 am)9% (Oct 6, 6:00 pm)29.83 "Hg (Oct 19, 5:00 pm)
Average82 °F26%29.96 "Hg
* Reported Oct 5 9:00 am — Oct 20 9:00 am, Adrar. Weather by CustomWeather, © 2019

Note: Actual official high and low records may vary slightly from our data, if they occured in-between our weather recording intervals... More about our weather records

Advertising

Adrar Weather History for the Previous 24 Hours

Scroll right to see more
 ConditionsComfort  
Time TempWeatherWind HumidityBarometerVisibility
9:00 am
Sun, Oct 20
73 °FSunny.7 mph31%29.92 "Hg10 mi
8:00 am68 °FSunny.8 mph33%29.89 "Hg10 mi
7:00 am68 °FClear.9 mph33%29.89 "Hg10 mi
6:00 am70 °FClear.10 mph31%29.86 "Hg10 mi
5:00 am70 °FClear.12 mph31%29.86 "Hg10 mi
4:00 am72 °FClear.10 mph29%29.86 "Hg10 mi
3:00 am72 °FClear.13 mph29%29.89 "Hg10 mi
2:00 am73 °FClear.14 mph25%29.89 "Hg10 mi
1:00 am73 °FClear.9 mph25%29.89 "Hg5 mi
12:00 am75 °FClear.12 mph24%29.92 "Hg5 mi
11:00 pm
Sat, Oct 19
77 °FClear.10 mph22%29.92 "Hg5 mi
10:00 pm81 °FClear.9 mph20%29.89 "Hg5 mi
9:00 pm81 °FClear.9 mph17%29.89 "Hg5 mi
8:00 pm82 °FClear.10 mph15%29.86 "Hg5 mi
7:00 pm90 °FClear.9 mph14%29.86 "Hg5 mi
6:00 pm91 °FClear.9 mph13%29.86 "Hg5 mi
5:00 pm93 °FClear.16 mph13%29.83 "Hg5 mi
4:00 pm93 °FClear.12 mph14%29.86 "Hg5 mi
3:00 pm93 °FClear.18 mph16%29.89 "Hg5 mi
2:00 pm91 °FSandstorm.23 mph17%29.89 "Hg5 mi
1:00 pm90 °FSandstorm.22 mph20%29.95 "Hg5 mi
12:00 pm90 °FSandstorm.23 mph21%29.98 "Hg5 mi
11:00 am86 °FSandstorm.24 mph24%29.98 "Hg5 mi
10:00 am81 °FClear.18 mph30%29.98 "Hg5 mi
9:00 am73 °FClear.16 mph33%29.95 "Hg5 mi
Weather by CustomWeather, © 2019

See weather overview